User: anonymous   Login
Location: Unspecified
(0.0000°N, 0.0000°E)
Time: 03:41:01
(UTC+00:00)
Language:

OSCAR 3 - Orbit

View from above orbital plane
View from above orbital plane
View from above satellite
View from above satellite

Ground track
Ground track

The orbit data is extracted from the following two-line orbital elements,

1 01293U 65016F   18023.89179868  .00000110  00000-0  99300-4 0  9990
2 01293  70.0724 210.8892 0020441 288.7721  71.1173 14.06232389701379
Epoch (UTC): 23 January 2018 21:24:11
Eccentricity: 0.0020441
inclination: 70.0724°
perigee height: 857 km
apogee height: 887 km
right ascension of ascending node: 210.8892°
argument of perigee: 288.7721°
revolutions per day: 14.06232389
mean anomaly at epoch: 71.1173°
orbit number at epoch: 70137

The dashed part of the orbit path shows where the satellite is in the earth's shadow,  

DLR